Skip Page Navigation
NASA JPL Caltech
NASA Logo - Jet Propulsion Laboratory + View the NASA Portal
+ Near-Earth Object (NEO) Program
Search JPL
JPL Home Earth Solar System Stars & Galaxies Technology
JPL Solar System Dynamics
BODIES ORBITS EPHEMERIDES TOOLS PHYSICAL DATA DISCOVERY FAQ SITE MAP
JPL Small-Body Database Browser
Search: [ help ]  
159504 (2000 WO67)
Classification: Apollo [NEO, PHA]          SPK-ID: 2159504
Ephemeris | Orbit Diagram | Orbital Elements | Physical Parameters | Discovery Circumstances | Close-Approach Data ]

[ hide orbit diagram ]
Orbit Diagram
Note: Make sure you have Java enabled on your browser to see the applet. This applet is provided as a 3D orbit visualization tool. The applet was implemented using 2-body methods, and hence should not be used for determining accurate long-term trajectories (over several years or decades) or planetary encounter circumstances. For accurate long-term ephemerides, please instead use our Horizons system.
Orbit Viewer

Additional Notes: the orbits shown in the applet are color coded. The planets are white lines, and the asteroid/comet is a blue line. The bright white line indicates the portion of the orbit that is above the ecliptic plane, and the darker portion is below the ecliptic plane. Likewise for the asteroid/comet orbit, the light blue indicates the portion above the ecliptic plane, and the dark blue the portion below the ecliptic plane.

Orbit Viewer applet originally written and kindly provided by Osamu Ajiki (AstroArts), and further modified by Ron Baalke (JPL).


Orbital Elements at Epoch 2456400.5 (2013-Apr-18.0) TDB
Reference: JPL 29 (heliocentric ecliptic J2000)
 Element Value Uncertainty (1-sigma)   Units 
e .6183008031130947 1.7765e-07  
a 2.430885398012009 6.7559e-08 AU
q .9278670041452889 4.5089e-07 AU
i 9.701174818786589 1.7349e-05 deg
node 107.7463854021042 8.5508e-05 deg
peri 237.6985616896739 9.1319e-05 deg
M 128.0839020775254 3.4481e-05 deg
tp 2455907.964879750721
(2011-Dec-12.46487975)
0.0001268 JED
period 1384.347606636923
3.79
5.7711e-05
1.58e-07
d
yr
n .2600502924800579 1.0841e-08 deg/d
Q 3.933903791878729 1.0933e-07 AU
  Orbit Determination Parameters
   # obs. used (total)      136  
   data-arc span      4108 days (11.25 yr)  
   first obs. used      2000-11-27  
   last obs. used      2012-02-26  
   planetary ephem.      DE405  
   SB-pert. ephem.      SB405-CPV-2  
   condition code      0  
   fit RMS      .56919  
   data source      ORB  
   producer      Otto Matic  
   solution date      2013-Apr-29 15:39:33  

Additional Information
 Earth MOID = .0474356 AU 
 T_jup = 3.200 
[ show covariance matrix ]

Ephemeris | Orbit Diagram | Orbital Elements | Physical Parameters | Discovery Circumstances | Close-Approach Data ]

Physical Parameter Table
Parameter Symbol Value Units Sigma Reference Notes
absolute magnitude H 16.205 mag .7985 29 autocmod 2.5c

159504 (2000 WO67)          Discovered 2000-Nov-27 by LINEAR at Socorro (704)
Reference: 20070630/Numbers.arcLast Updated: 2007-07-05

[ show close-approach data ]
Ephemeris | Orbit Diagram | Orbital Elements | Physical Parameters | Discovery Circumstances | Close-Approach Data ]
ABOUT SSD CREDITS/AWARDS PRIVACY/COPYRIGHT GLOSSARY LINKS
FirstGov 2013-May-22 10:45 UT
(server date/time)  
NASA Home Page
Site Manager:   Donald K. Yeomans
Webmaster  Alan B. Chamberlin